owner,sensor,date,latitude,longitude,vertical_datum,sea_water_practical_salinity,qcFlag 
TCOON,ioos:station:TCOON:147:1,2014-01-01T00:00:00Z,28.0841,-97.2009,0.0,35.4,1111122 
TCOON,ioos:station:TCOON:147:1,2014-01-01T00:30:00Z,28.0841,-97.2009,0.0,35.4,1111122 
TCOON,ioos:station:TCOON:147:1,2014-01-01T01:00:00Z,28.0841,-97.2009,0.0,35.4,1111122 
TCOON,ioos:station:TCOON:147:1,2014-01-01T01:30:00Z,28.0841,-97.2009,0.0,35.4,1111122 
TCOON,ioos:station:TCOON:147:1,2014-01-01T02:00:00Z,28.0841,-97.2009,0.0,35.4,1111122 
TCOON,ioos:station:TCOON:147:1,2014-01-01T02:30:00Z,28.0841,-97.2009,0.0,35.4,1111122 
TCOON,ioos:station:TCOON:147:1,2014-01-01T03:00:00Z,28.0841,-97.2009,0.0,35.4,1111122 
TCOON,ioos:station:TCOON:147:1,2014-01-01T04:00:00Z,28.0841,-97.2009,0.0,35.4,1111122 
TCOON,ioos:station:TCOON:147:1,2014-01-01T04:30:00Z,28.0841,-97.2009,0.0,35.4,1111122 
TCOON,ioos:station:TCOON:147:1,2014-01-01T05:00:00Z,28.0841,-97.2009,0.0,35.4,1111122 
TCOON,ioos:station:TCOON:147:1,2014-01-01T05:30:00Z,28.0841,-97.2009,0.0,35.4,1111122 
TCOON,ioos:station:TCOON:147:1,2014-01-01T06:00:00Z,28.0841,-97.2009,0.0,35.4,1111122 
TCOON,ioos:station:TCOON:147:1,2014-01-01T06:30:00Z,28.0841,-97.2009,0.0,35.4,1111122 
TCOON,ioos:station:TCOON:147:1,2014-01-01T07:00:00Z,28.0841,-97.2009,0.0,35.4,1111122 
TCOON,ioos:station:TCOON:147:1,2014-01-01T07:30:00Z,28.0841,-97.2009,0.0,35.4,1111122 
TCOON,ioos:station:TCOON:147:1,2014-01-01T08:00:00Z,28.0841,-97.2009,0.0,35.4,1111122 
TCOON,ioos:station:TCOON:147:1,2014-01-01T08:30:00Z,28.0841,-97.2009,0.0,35.4,1111122 
TCOON,ioos:station:TCOON:147:1,2014-01-01T09:00:00Z,28.0841,-97.2009,0.0,35.4,1111122 
TCOON,ioos:station:TCOON:147:1,2014-01-01T09:30:00Z,28.0841,-97.2009,0.0,35.4,1111122 
TCOON,ioos:station:TCOON:147:1,2014-01-01T10:00:00Z,28.0841,-97.2009,0.0,35.4,1111122 
TCOON,ioos:station:TCOON:147:1,2014-01-01T10:30:00Z,28.0841,-97.2009,0.0,35.4,1111122 
TCOON,ioos:station:TCOON:147:1,2014-01-01T11:00:00Z,28.0841,-97.2009,0.0,35.4,1111122 
TCOON,ioos:station:TCOON:147:1,2014-01-01T11:30:00Z,28.0841,-97.2009,0.0,35.4,1111122 
TCOON,ioos:station:TCOON:147:1,2014-01-01T12:00:00Z,28.0841,-97.2009,0.0,35.4,1111122 
TCOON,ioos:station:TCOON:147:1,2014-01-01T12:30:00Z,28.0841,-97.2009,0.0,35.4,1111122 
TCOON,ioos:station:TCOON:147:1,2014-01-01T13:00:00Z,28.0841,-97.2009,0.0,35.3,1111122 
TCOON,ioos:station:TCOON:147:1,2014-01-01T13:30:00Z,28.0841,-97.2009,0.0,35.4,1111122 
TCOON,ioos:station:TCOON:147:1,2014-01-01T14:00:00Z,28.0841,-97.2009,0.0,35.4,1111122 
TCOON,ioos:station:TCOON:147:1,2014-01-01T14:30:00Z,28.0841,-97.2009,0.0,35.4,1111122 
TCOON,ioos:station:TCOON:147:1,2014-01-01T15:00:00Z,28.0841,-97.2009,0.0,35.4,1111122 
TCOON,ioos:station:TCOON:147:1,2014-01-01T15:30:00Z,28.0841,-97.2009,0.0,35.4,1111122 
TCOON,ioos:station:TCOON:147:1,2014-01-01T16:00:00Z,28.0841,-97.2009,0.0,35.4,1111122 
TCOON,ioos:station:TCOON:147:1,2014-01-01T16:30:00Z,28.0841,-97.2009,0.0,35.3,1111122 
TCOON,ioos:station:TCOON:147:1,2014-01-01T17:00:00Z,28.0841,-97.2009,0.0,35.3,1111122 
TCOON,ioos:station:TCOON:147:1,2014-01-01T17:30:00Z,28.0841,-97.2009,0.0,35.3,1111122 
TCOON,ioos:station:TCOON:147:1,2014-01-01T18:00:00Z,28.0841,-97.2009,0.0,35.3,1111122 
TCOON,ioos:station:TCOON:147:1,2014-01-01T18:30:00Z,28.0841,-97.2009,0.0,35.3,1111122 
TCOON,ioos:station:TCOON:147:1,2014-01-01T19:00:00Z,28.0841,-97.2009,0.0,35.3,1111122 
TCOON,ioos:station:TCOON:147:1,2014-01-01T19:30:00Z,28.0841,-97.2009,0.0,35.3,1111122 
TCOON,ioos:station:TCOON:147:1,2014-01-01T20:00:00Z,28.0841,-97.2009,0.0,35.3,1111122 
TCOON,ioos:station:TCOON:147:1,2014-01-01T20:30:00Z,28.0841,-97.2009,0.0,35.3,1111122 
TCOON,ioos:station:TCOON:147:1,2014-01-01T21:00:00Z,28.0841,-97.2009,0.0,35.3,1111122 
TCOON,ioos:station:TCOON:147:1,2014-01-01T21:30:00Z,28.0841,-97.2009,0.0,35.3,1111122 
TCOON,ioos:station:TCOON:147:1,2014-01-01T22:00:00Z,28.0841,-97.2009,0.0,35.3,1111122 
TCOON,ioos:station:TCOON:147:1,2014-01-01T22:30:00Z,28.0841,-97.2009,0.0,35.2,1111122 
TCOON,ioos:station:TCOON:147:1,2014-01-01T23:00:00Z,28.0841,-97.2009,0.0,35.3,1111122 
TCOON,ioos:station:TCOON:147:1,2014-01-01T23:30:00Z,28.0841,-97.2009,0.0,35.3,1111122 
TCOON,ioos:station:TCOON:147:1,2014-01-02T00:00:00Z,28.0841,-97.2009,0.0,35.3,1111122 
TCOON,ioos:station:TCOON:147:1,2014-01-02T00:30:00Z,28.0841,-97.2009,0.0,35.2,1111122 
TCOON,ioos:station:TCOON:147:1,2014-01-02T01:00:00Z,28.0841,-97.2009,0.0,35.2,1111122 
TCOON,ioos:station:TCOON:147:1,2014-01-02T01:30:00Z,28.0841,-97.2009,0.0,35.2,1111122 
TCOON,ioos:station:TCOON:147:1,2014-01-02T02:00:00Z,28.0841,-97.2009,0.0,35.2,1111122 
TCOON,ioos:station:TCOON:147:1,2014-01-02T03:00:00Z,28.0841,-97.2009,0.0,35.2,1111122 
TCOON,ioos:station:TCOON:147:1,2014-01-02T03:30:00Z,28.0841,-97.2009,0.0,35.2,1111122 
TCOON,ioos:station:TCOON:147:1,2014-01-02T04:00:00Z,28.0841,-97.2009,0.0,35.2,1111122 
TCOON,ioos:station:TCOON:147:1,2014-01-02T04:30:00Z,28.0841,-97.2009,0.0,35.2,1111122 
TCOON,ioos:station:TCOON:147:1,2014-01-02T05:00:00Z,28.0841,-97.2009,0.0,35.2,1111122 
TCOON,ioos:station:TCOON:147:1,2014-01-02T05:30:00Z,28.0841,-97.2009,0.0,35.1,1111122 
TCOON,ioos:station:TCOON:147:1,2014-01-02T06:00:00Z,28.0841,-97.2009,0.0,35.2,1111122 
TCOON,ioos:station:TCOON:147:1,2014-01-02T07:00:00Z,28.0841,-97.2009,0.0,35.2,1111122 
TCOON,ioos:station:TCOON:147:1,2014-01-02T07:30:00Z,28.0841,-97.2009,0.0,35.2,1111122 
TCOON,ioos:station:TCOON:147:1,2014-01-02T08:00:00Z,28.0841,-97.2009,0.0,35.2,1111122 
TCOON,ioos:station:TCOON:147:1,2014-01-02T08:30:00Z,28.0841,-97.2009,0.0,35.2,1111122 
TCOON,ioos:station:TCOON:147:1,2014-01-02T09:00:00Z,28.0841,-97.2009,0.0,35.2,1111122 
TCOON,ioos:station:TCOON:147:1,2014-01-02T09:30:00Z,28.0841,-97.2009,0.0,35.2,1111122 
TCOON,ioos:station:TCOON:147:1,2014-01-02T10:00:00Z,28.0841,-97.2009,0.0,35.2,1111122 
TCOON,ioos:station:TCOON:147:1,2014-01-02T10:30:00Z,28.0841,-97.2009,0.0,33.9,1111122 
TCOON,ioos:station:TCOON:147:1,2014-01-02T11:00:00Z,28.0841,-97.2009,0.0,35.2,1111122 
TCOON,ioos:station:TCOON:147:1,2014-01-02T11:30:00Z,28.0841,-97.2009,0.0,33.7,1111122 
TCOON,ioos:station:TCOON:147:1,2014-01-02T12:00:00Z,28.0841,-97.2009,0.0,35.3,1111122 
TCOON,ioos:station:TCOON:147:1,2014-01-02T12:30:00Z,28.0841,-97.2009,0.0,35.3,1111122 
TCOON,ioos:station:TCOON:147:1,2014-01-02T13:00:00Z,28.0841,-97.2009,0.0,35.3,1111122 
TCOON,ioos:station:TCOON:147:1,2014-01-02T13:30:00Z,28.0841,-97.2009,0.0,35.3,1111122 
TCOON,ioos:station:TCOON:147:1,2014-01-02T14:00:00Z,28.0841,-97.2009,0.0,35.3,1111122 
TCOON,ioos:station:TCOON:147:1,2014-01-02T14:30:00Z,28.0841,-97.2009,0.0,35.3,1111122 
TCOON,ioos:station:TCOON:147:1,2014-01-02T15:00:00Z,28.0841,-97.2009,0.0,35.4,1111122 
TCOON,ioos:station:TCOON:147:1,2014-01-02T15:30:00Z,28.0841,-97.2009,0.0,35.4,1111122 
TCOON,ioos:station:TCOON:147:1,2014-01-02T16:00:00Z,28.0841,-97.2009,0.0,35.4,1111122 
TCOON,ioos:station:TCOON:147:1,2014-01-02T16:30:00Z,28.0841,-97.2009,0.0,35.3,1111122 
TCOON,ioos:station:TCOON:147:1,2014-01-02T17:30:00Z,28.0841,-97.2009,0.0,35.3,1111122 
TCOON,ioos:station:TCOON:147:1,2014-01-02T18:00:00Z,28.0841,-97.2009,0.0,35.3,1111122 
TCOON,ioos:station:TCOON:147:1,2014-01-02T18:30:00Z,28.0841,-97.2009,0.0,35.4,1111122 
TCOON,ioos:station:TCOON:147:1,2014-01-02T19:00:00Z,28.0841,-97.2009,0.0,35.4,1111122 
TCOON,ioos:station:TCOON:147:1,2014-01-02T20:00:00Z,28.0841,-97.2009,0.0,35.4,1111122 
TCOON,ioos:station:TCOON:147:1,2014-01-02T20:30:00Z,28.0841,-97.2009,0.0,35.4,1111122 
TCOON,ioos:station:TCOON:147:1,2014-01-02T21:00:00Z,28.0841,-97.2009,0.0,35.4,1111122 
TCOON,ioos:station:TCOON:147:1,2014-01-02T22:00:00Z,28.0841,-97.2009,0.0,35.4,1111122 
TCOON,ioos:station:TCOON:147:1,2014-01-02T23:00:00Z,28.0841,-97.2009,0.0,35.4,1111122 
TCOON,ioos:station:TCOON:147:1,2014-01-02T23:30:00Z,28.0841,-97.2009,0.0,35.4,1111122 
TCOON,ioos:station:TCOON:147:1,2014-01-03T00:00:00Z,28.0841,-97.2009,0.0,35.5,1111122 
TCOON,ioos:station:TCOON:147:1,2014-01-03T00:30:00Z,28.0841,-97.2009,0.0,35.5,1111122 
TCOON,ioos:station:TCOON:147:1,2014-01-03T01:00:00Z,28.0841,-97.2009,0.0,35.5,1111122 
TCOON,ioos:station:TCOON:147:1,2014-01-03T01:30:00Z,28.0841,-97.2009,0.0,35.5,1111122 
TCOON,ioos:station:TCOON:147:1,2014-01-03T02:00:00Z,28.0841,-97.2009,0.0,35.5,1111122 
TCOON,ioos:station:TCOON:147:1,2014-01-03T02:30:00Z,28.0841,-97.2009,0.0,35.5,1111122 
TCOON,ioos:station:TCOON:147:1,2014-01-03T03:00:00Z,28.0841,-97.2009,0.0,35.5,1111122 
TCOON,ioos:station:TCOON:147:1,2014-01-03T03:30:00Z,28.0841,-97.2009,0.0,35.5,1111122 
TCOON,ioos:station:TCOON:147:1,2014-01-03T04:00:00Z,28.0841,-97.2009,0.0,35.5,1111122 
TCOON,ioos:station:TCOON:147:1,2014-01-03T10:00:00Z,28.0841,-97.2009,0.0,35.2,1111122 
TCOON,ioos:station:TCOON:147:1,2014-01-03T10:30:00Z,28.0841,-97.2009,0.0,35.2,1111122 
TCOON,ioos:station:TCOON:147:1,2014-01-03T11:00:00Z,28.0841,-97.2009,0.0,35.2,1111122 
TCOON,ioos:station:TCOON:147:1,2014-01-03T11:30:00Z,28.0841,-97.2009,0.0,35.2,1111122 
TCOON,ioos:station:TCOON:147:1,2014-01-03T12:00:00Z,28.0841,-97.2009,0.0,35.1,1111122 
TCOON,ioos:station:TCOON:147:1,2014-01-03T12:30:00Z,28.0841,-97.2009,0.0,35.1,1111122 
TCOON,ioos:station:TCOON:147:1,2014-01-03T13:00:00Z,28.0841,-97.2009,0.0,35.1,1111122 
TCOON,ioos:station:TCOON:147:1,2014-01-03T13:30:00Z,28.0841,-97.2009,0.0,35.1,1111122 
TCOON,ioos:station:TCOON:147:1,2014-01-03T14:00:00Z,28.0841,-97.2009,0.0,35.1,1111122 
TCOON,ioos:station:TCOON:147:1,2014-01-03T14:30:00Z,28.0841,-97.2009,0.0,35.1,1111122 
TCOON,ioos:station:TCOON:147:1,2014-01-03T15:00:00Z,28.0841,-97.2009,0.0,35.1,1111122 
TCOON,ioos:station:TCOON:147:1,2014-01-03T15:30:00Z,28.0841,-97.2009,0.0,33.3,1111122 
TCOON,ioos:station:TCOON:147:1,2014-01-03T16:00:00Z,28.0841,-97.2009,0.0,33.7,1111122 
TCOON,ioos:station:TCOON:147:1,2014-01-03T16:30:00Z,28.0841,-97.2009,0.0,29.4,1111122 
TCOON,ioos:station:TCOON:147:1,2014-01-03T17:00:00Z,28.0841,-97.2009,0.0,29.1,1111122 
TCOON,ioos:station:TCOON:147:1,2014-01-03T17:30:00Z,28.0841,-97.2009,0.0,29.1,1111122 
TCOON,ioos:station:TCOON:147:1,2014-01-03T18:00:00Z,28.0841,-97.2009,0.0,28.8,1111122 
TCOON,ioos:station:TCOON:147:1,2014-01-03T18:30:00Z,28.0841,-97.2009,0.0,29.5,1111122 
TCOON,ioos:station:TCOON:147:1,2014-01-03T19:00:00Z,28.0841,-97.2009,0.0,28.5,1111122 
TCOON,ioos:station:TCOON:147:1,2014-01-03T19:30:00Z,28.0841,-97.2009,0.0,28.8,1111122 
TCOON,ioos:station:TCOON:147:1,2014-01-03T20:00:00Z,28.0841,-97.2009,0.0,35.0,1111122 
TCOON,ioos:station:TCOON:147:1,2014-01-03T20:30:00Z,28.0841,-97.2009,0.0,29.1,1111122 
TCOON,ioos:station:TCOON:147:1,2014-01-03T21:00:00Z,28.0841,-97.2009,0.0,29.0,1111122 
TCOON,ioos:station:TCOON:147:1,2014-01-03T21:30:00Z,28.0841,-97.2009,0.0,28.9,1111122 
TCOON,ioos:station:TCOON:147:1,2014-01-03T22:00:00Z,28.0841,-97.2009,0.0,28.3,1111122 
TCOON,ioos:station:TCOON:147:1,2014-01-03T22:30:00Z,28.0841,-97.2009,0.0,35.0,1111122 
TCOON,ioos:station:TCOON:147:1,2014-01-03T23:00:00Z,28.0841,-97.2009,0.0,35.0,1111122 
TCOON,ioos:station:TCOON:147:1,2014-01-03T23:30:00Z,28.0841,-97.2009,0.0,35.0,1111122 
TCOON,ioos:station:TCOON:147:1,2014-01-04T00:00:00Z,28.0841,-97.2009,0.0,35.0,1111122 
TCOON,ioos:station:TCOON:147:1,2014-01-04T00:30:00Z,28.0841,-97.2009,0.0,35.1,1111122 
TCOON,ioos:station:TCOON:147:1,2014-01-04T01:00:00Z,28.0841,-97.2009,0.0,35.1,1111122 
TCOON,ioos:station:TCOON:147:1,2014-01-04T02:00:00Z,28.0841,-97.2009,0.0,35.1,1111122 
TCOON,ioos:station:TCOON:147:1,2014-01-04T03:00:00Z,28.0841,-97.2009,0.0,35.1,1111122 
TCOON,ioos:station:TCOON:147:1,2014-01-04T03:30:00Z,28.0841,-97.2009,0.0,35.0,1111122 
TCOON,ioos:station:TCOON:147:1,2014-01-04T04:00:00Z,28.0841,-97.2009,0.0,35.0,1111122 
TCOON,ioos:station:TCOON:147:1,2014-01-04T04:30:00Z,28.0841,-97.2009,0.0,35.0,1111122 
TCOON,ioos:station:TCOON:147:1,2014-01-04T05:30:00Z,28.0841,-97.2009,0.0,35.0,1111122 
TCOON,ioos:station:TCOON:147:1,2014-01-04T06:00:00Z,28.0841,-97.2009,0.0,35.0,1111122 
TCOON,ioos:station:TCOON:147:1,2014-01-04T06:30:00Z,28.0841,-97.2009,0.0,35.0,1111122 
TCOON,ioos:station:TCOON:147:1,2014-01-04T07:00:00Z,28.0841,-97.2009,0.0,35.0,1111122 
TCOON,ioos:station:TCOON:147:1,2014-01-04T07:30:00Z,28.0841,-97.2009,0.0,35.0,1111122 
TCOON,ioos:station:TCOON:147:1,2014-01-04T08:30:00Z,28.0841,-97.2009,0.0,35.1,1111122 
TCOON,ioos:station:TCOON:147:1,2014-01-04T09:00:00Z,28.0841,-97.2009,0.0,35.1,1111122 
TCOON,ioos:station:TCOON:147:1,2014-01-04T09:30:00Z,28.0841,-97.2009,0.0,35.1,1111122 
TCOON,ioos:station:TCOON:147:1,2014-01-04T10:00:00Z,28.0841,-97.2009,0.0,35.1,1111122 
TCOON,ioos:station:TCOON:147:1,2014-01-04T11:00:00Z,28.0841,-97.2009,0.0,35.2,1111122 
TCOON,ioos:station:TCOON:147:1,2014-01-04T11:30:00Z,28.0841,-97.2009,0.0,35.2,1111122 
TCOON,ioos:station:TCOON:147:1,2014-01-04T12:00:00Z,28.0841,-97.2009,0.0,35.2,1111122 
TCOON,ioos:station:TCOON:147:1,2014-01-04T12:30:00Z,28.0841,-97.2009,0.0,35.2,1111122 
TCOON,ioos:station:TCOON:147:1,2014-01-04T13:00:00Z,28.0841,-97.2009,0.0,35.2,1111122 
TCOON,ioos:station:TCOON:147:1,2014-01-04T13:30:00Z,28.0841,-97.2009,0.0,35.3,1111122 
TCOON,ioos:station:TCOON:147:1,2014-01-04T14:00:00Z,28.0841,-97.2009,0.0,35.3,1111122 
TCOON,ioos:station:TCOON:147:1,2014-01-04T14:30:00Z,28.0841,-97.2009,0.0,35.3,1111122 
TCOON,ioos:station:TCOON:147:1,2014-01-04T15:00:00Z,28.0841,-97.2009,0.0,35.3,1111122 
TCOON,ioos:station:TCOON:147:1,2014-01-04T15:30:00Z,28.0841,-97.2009,0.0,35.3,1111122 
TCOON,ioos:station:TCOON:147:1,2014-01-04T16:00:00Z,28.0841,-97.2009,0.0,35.3,1111122 
TCOON,ioos:station:TCOON:147:1,2014-01-04T16:30:00Z,28.0841,-97.2009,0.0,35.3,1111122 
TCOON,ioos:station:TCOON:147:1,2014-01-04T17:00:00Z,28.0841,-97.2009,0.0,35.3,1111122 
TCOON,ioos:station:TCOON:147:1,2014-01-04T17:30:00Z,28.0841,-97.2009,0.0,28.4,1111122 
TCOON,ioos:station:TCOON:147:1,2014-01-04T18:00:00Z,28.0841,-97.2009,0.0,27.9,1111122 
TCOON,ioos:station:TCOON:147:1,2014-01-04T18:30:00Z,28.0841,-97.2009,0.0,28.1,1111122 
TCOON,ioos:station:TCOON:147:1,2014-01-04T19:00:00Z,28.0841,-97.2009,0.0,28.4,1111122 
TCOON,ioos:station:TCOON:147:1,2014-01-04T19:30:00Z,28.0841,-97.2009,0.0,28.8,1111122 
TCOON,ioos:station:TCOON:147:1,2014-01-04T20:00:00Z,28.0841,-97.2009,0.0,28.9,1111122 
TCOON,ioos:station:TCOON:147:1,2014-01-04T20:30:00Z,28.0841,-97.2009,0.0,29.0,1111122 
TCOON,ioos:station:TCOON:147:1,2014-01-04T21:00:00Z,28.0841,-97.2009,0.0,29.3,1111122 
TCOON,ioos:station:TCOON:147:1,2014-01-04T21:30:00Z,28.0841,-97.2009,0.0,29.7,1111122 
TCOON,ioos:station:TCOON:147:1,2014-01-04T22:00:00Z,28.0841,-97.2009,0.0,28.8,1111122 
TCOON,ioos:station:TCOON:147:1,2014-01-04T22:30:00Z,28.0841,-97.2009,0.0,28.9,1111122 
TCOON,ioos:station:TCOON:147:1,2014-01-04T23:00:00Z,28.0841,-97.2009,0.0,35.0,1111122 
TCOON,ioos:station:TCOON:147:1,2014-01-04T23:30:00Z,28.0841,-97.2009,0.0,35.0,1111122 
TCOON,ioos:station:TCOON:147:1,2014-01-05T00:00:00Z,28.0841,-97.2009,0.0,29.6,1111122 
TCOON,ioos:station:TCOON:147:1,2014-01-05T00:30:00Z,28.0841,-97.2009,0.0,35.0,1111122 
TCOON,ioos:station:TCOON:147:1,2014-01-05T01:00:00Z,28.0841,-97.2009,0.0,35.0,1111122 
TCOON,ioos:station:TCOON:147:1,2014-01-05T01:30:00Z,28.0841,-97.2009,0.0,35.0,1111122 
TCOON,ioos:station:TCOON:147:1,2014-01-05T02:00:00Z,28.0841,-97.2009,0.0,35.0,1111122 
TCOON,ioos:station:TCOON:147:1,2014-01-05T02:30:00Z,28.0841,-97.2009,0.0,34.9,1111122 
TCOON,ioos:station:TCOON:147:1,2014-01-05T03:00:00Z,28.0841,-97.2009,0.0,34.9,1111122 
TCOON,ioos:station:TCOON:147:1,2014-01-05T03:30:00Z,28.0841,-97.2009,0.0,34.9,1111122 
TCOON,ioos:station:TCOON:147:1,2014-01-05T04:00:00Z,28.0841,-97.2009,0.0,34.9,1111122 
TCOON,ioos:station:TCOON:147:1,2014-01-05T04:30:00Z,28.0841,-97.2009,0.0,34.9,1111122 
TCOON,ioos:station:TCOON:147:1,2014-01-05T05:00:00Z,28.0841,-97.2009,0.0,34.9,1111122 
TCOON,ioos:station:TCOON:147:1,2014-01-05T05:30:00Z,28.0841,-97.2009,0.0,34.9,1111122 
TCOON,ioos:station:TCOON:147:1,2014-01-05T06:00:00Z,28.0841,-97.2009,0.0,34.9,1111122 
TCOON,ioos:station:TCOON:147:1,2014-01-05T07:00:00Z,28.0841,-97.2009,0.0,34.9,1111122 
TCOON,ioos:station:TCOON:147:1,2014-01-05T07:30:00Z,28.0841,-97.2009,0.0,34.8,1111122 
TCOON,ioos:station:TCOON:147:1,2014-01-05T08:30:00Z,28.0841,-97.2009,0.0,34.8,1111122 
TCOON,ioos:station:TCOON:147:1,2014-01-05T09:00:00Z,28.0841,-97.2009,0.0,34.8,1111122 
TCOON,ioos:station:TCOON:147:1,2014-01-05T09:30:00Z,28.0841,-97.2009,0.0,34.8,1111122 
TCOON,ioos:station:TCOON:147:1,2014-01-05T10:00:00Z,28.0841,-97.2009,0.0,34.8,1111122 
TCOON,ioos:station:TCOON:147:1,2014-01-05T10:30:00Z,28.0841,-97.2009,0.0,34.8,1111122 
TCOON,ioos:station:TCOON:147:1,2014-01-05T11:00:00Z,28.0841,-97.2009,0.0,34.7,1111122 
TCOON,ioos:station:TCOON:147:1,2014-01-05T11:30:00Z,28.0841,-97.2009,0.0,34.7,1111122 
TCOON,ioos:station:TCOON:147:1,2014-01-05T12:00:00Z,28.0841,-97.2009,0.0,34.7,1111122 
TCOON,ioos:station:TCOON:147:1,2014-01-05T12:30:00Z,28.0841,-97.2009,0.0,34.7,1111122 
TCOON,ioos:station:TCOON:147:1,2014-01-05T14:00:00Z,28.0841,-97.2009,0.0,34.7,1111122 
TCOON,ioos:station:TCOON:147:1,2014-01-05T14:30:00Z,28.0841,-97.2009,0.0,34.8,1111122 
TCOON,ioos:station:TCOON:147:1,2014-01-05T15:00:00Z,28.0841,-97.2009,0.0,34.8,1111122 
TCOON,ioos:station:TCOON:147:1,2014-01-05T15:30:00Z,28.0841,-97.2009,0.0,34.8,1111122 
TCOON,ioos:station:TCOON:147:1,2014-01-05T16:00:00Z,28.0841,-97.2009,0.0,34.8,1111122 
TCOON,ioos:station:TCOON:147:1,2014-01-05T16:30:00Z,28.0841,-97.2009,0.0,34.8,1111122 
TCOON,ioos:station:TCOON:147:1,2014-01-05T17:00:00Z,28.0841,-97.2009,0.0,28.2,1111122 
TCOON,ioos:station:TCOON:147:1,2014-01-05T17:30:00Z,28.0841,-97.2009,0.0,34.8,1111122 
TCOON,ioos:station:TCOON:147:1,2014-01-05T18:00:00Z,28.0841,-97.2009,0.0,34.8,1111122 
TCOON,ioos:station:TCOON:147:1,2014-01-05T18:30:00Z,28.0841,-97.2009,0.0,34.8,1111122 
TCOON,ioos:station:TCOON:147:1,2014-01-05T19:00:00Z,28.0841,-97.2009,0.0,34.8,1111122 
TCOON,ioos:station:TCOON:147:1,2014-01-05T19:30:00Z,28.0841,-97.2009,0.0,34.8,1111122 
TCOON,ioos:station:TCOON:147:1,2014-01-05T20:00:00Z,28.0841,-97.2009,0.0,34.9,1111122 
TCOON,ioos:station:TCOON:147:1,2014-01-05T20:30:00Z,28.0841,-97.2009,0.0,34.9,1111122 
TCOON,ioos:station:TCOON:147:1,2014-01-05T21:00:00Z,28.0841,-97.2009,0.0,34.9,1111122 
TCOON,ioos:station:TCOON:147:1,2014-01-05T21:30:00Z,28.0841,-97.2009,0.0,34.9,1111122 
TCOON,ioos:station:TCOON:147:1,2014-01-05T22:00:00Z,28.0841,-97.2009,0.0,34.9,1111122 
TCOON,ioos:station:TCOON:147:1,2014-01-05T22:30:00Z,28.0841,-97.2009,0.0,34.9,1111122 
TCOON,ioos:station:TCOON:147:1,2014-01-05T23:00:00Z,28.0841,-97.2009,0.0,34.9,1111122 
TCOON,ioos:station:TCOON:147:1,2014-01-05T23:30:00Z,28.0841,-97.2009,0.0,34.9,1111122 
TCOON,ioos:station:TCOON:147:1,2014-01-06T00:00:00Z,28.0841,-97.2009,0.0,34.9,1111122 
TCOON,ioos:station:TCOON:147:1,2014-01-06T00:30:00Z,28.0841,-97.2009,0.0,34.9,1111122 
TCOON,ioos:station:TCOON:147:1,2014-01-06T01:00:00Z,28.0841,-97.2009,0.0,34.9,1111122 
TCOON,ioos:station:TCOON:147:1,2014-01-06T01:30:00Z,28.0841,-97.2009,0.0,34.9,1111122 
TCOON,ioos:station:TCOON:147:1,2014-01-06T02:00:00Z,28.0841,-97.2009,0.0,34.9,1111122 
TCOON,ioos:station:TCOON:147:1,2014-01-06T02:30:00Z,28.0841,-97.2009,0.0,34.9,1111122 
TCOON,ioos:station:TCOON:147:1,2014-01-06T03:00:00Z,28.0841,-97.2009,0.0,34.9,1111122 
TCOON,ioos:station:TCOON:147:1,2014-01-06T03:30:00Z,28.0841,-97.2009,0.0,34.9,1111122 
TCOON,ioos:station:TCOON:147:1,2014-01-06T04:00:00Z,28.0841,-97.2009,0.0,35.0,1111122 
TCOON,ioos:station:TCOON:147:1,2014-01-06T04:30:00Z,28.0841,-97.2009,0.0,35.1,1111122 
TCOON,ioos:station:TCOON:147:1,2014-01-06T05:00:00Z,28.0841,-97.2009,0.0,35.0,1111122 
TCOON,ioos:station:TCOON:147:1,2014-01-06T05:30:00Z,28.0841,-97.2009,0.0,35.0,1111122 
TCOON,ioos:station:TCOON:147:1,2014-01-06T06:00:00Z,28.0841,-97.2009,0.0,35.0,1111122 
TCOON,ioos:station:TCOON:147:1,2014-01-06T07:00:00Z,28.0841,-97.2009,0.0,34.9,1111122 
TCOON,ioos:station:TCOON:147:1,2014-01-06T07:30:00Z,28.0841,-97.2009,0.0,34.9,1111122 
TCOON,ioos:station:TCOON:147:1,2014-01-06T08:00:00Z,28.0841,-97.2009,0.0,34.9,1111122 
TCOON,ioos:station:TCOON:147:1,2014-01-06T09:00:00Z,28.0841,-97.2009,0.0,34.9,1111122 
TCOON,ioos:station:TCOON:147:1,2014-01-06T09:30:00Z,28.0841,-97.2009,0.0,34.9,1111122 
TCOON,ioos:station:TCOON:147:1,2014-01-06T10:00:00Z,28.0841,-97.2009,0.0,34.8,1111122 
TCOON,ioos:station:TCOON:147:1,2014-01-06T10:30:00Z,28.0841,-97.2009,0.0,34.8,1111122 
TCOON,ioos:station:TCOON:147:1,2014-01-06T11:00:00Z,28.0841,-97.2009,0.0,34.9,1111122 
TCOON,ioos:station:TCOON:147:1,2014-01-06T11:30:00Z,28.0841,-97.2009,0.0,34.8,1111122 
TCOON,ioos:station:TCOON:147:1,2014-01-06T12:00:00Z,28.0841,-97.2009,0.0,34.8,1111122 
TCOON,ioos:station:TCOON:147:1,2014-01-06T12:30:00Z,28.0841,-97.2009,0.0,34.8,1111122 
TCOON,ioos:station:TCOON:147:1,2014-01-06T13:00:00Z,28.0841,-97.2009,0.0,34.8,1111122 
TCOON,ioos:station:TCOON:147:1,2014-01-06T13:30:00Z,28.0841,-97.2009,0.0,34.8,1111122 
TCOON,ioos:station:TCOON:147:1,2014-01-06T14:00:00Z,28.0841,-97.2009,0.0,34.8,1111122 
TCOON,ioos:station:TCOON:147:1,2014-01-06T14:30:00Z,28.0841,-97.2009,0.0,34.8,1111122 
TCOON,ioos:station:TCOON:147:1,2014-01-06T15:00:00Z,28.0841,-97.2009,0.0,34.9,1111122 
TCOON,ioos:station:TCOON:147:1,2014-01-06T15:30:00Z,28.0841,-97.2009,0.0,34.8,1111122 
TCOON,ioos:station:TCOON:147:1,2014-01-06T16:00:00Z,28.0841,-97.2009,0.0,34.8,1111122 
TCOON,ioos:station:TCOON:147:1,2014-01-06T16:30:00Z,28.0841,-97.2009,0.0,34.8,1111122 
TCOON,ioos:station:TCOON:147:1,2014-01-06T17:00:00Z,28.0841,-97.2009,0.0,34.9,1111122 
TCOON,ioos:station:TCOON:147:1,2014-01-06T17:30:00Z,28.0841,-97.2009,0.0,34.9,1111122 
TCOON,ioos:station:TCOON:147:1,2014-01-06T18:00:00Z,28.0841,-97.2009,0.0,34.9,1111122 
TCOON,ioos:station:TCOON:147:1,2014-01-06T18:30:00Z,28.0841,-97.2009,0.0,34.9,1111122 
TCOON,ioos:station:TCOON:147:1,2014-01-06T19:30:00Z,28.0841,-97.2009,0.0,35.0,1111122 
TCOON,ioos:station:TCOON:147:1,2014-01-06T20:00:00Z,28.0841,-97.2009,0.0,35.0,1111122 
TCOON,ioos:station:TCOON:147:1,2014-01-06T20:30:00Z,28.0841,-97.2009,0.0,35.0,1111122 
TCOON,ioos:station:TCOON:147:1,2014-01-06T21:00:00Z,28.0841,-97.2009,0.0,35.1,1111122 
TCOON,ioos:station:TCOON:147:1,2014-01-06T21:30:00Z,28.0841,-97.2009,0.0,35.2,1111122 
TCOON,ioos:station:TCOON:147:1,2014-01-06T22:00:00Z,28.0841,-97.2009,0.0,35.2,1111122 
TCOON,ioos:station:TCOON:147:1,2014-01-06T22:30:00Z,28.0841,-97.2009,0.0,35.2,1111122 
TCOON,ioos:station:TCOON:147:1,2014-01-06T23:30:00Z,28.0841,-97.2009,0.0,35.2,1111122 
TCOON,ioos:station:TCOON:147:1,2014-01-07T00:00:00Z,28.0841,-97.2009,0.0,35.2,1111122 
TCOON,ioos:station:TCOON:147:1,2014-01-07T00:30:00Z,28.0841,-97.2009,0.0,35.2,1111122 
TCOON,ioos:station:TCOON:147:1,2014-01-07T01:30:00Z,28.0841,-97.2009,0.0,35.3,1111122 
TCOON,ioos:station:TCOON:147:1,2014-01-07T02:30:00Z,28.0841,-97.2009,0.0,35.2,1111122 
TCOON,ioos:station:TCOON:147:1,2014-01-07T03:00:00Z,28.0841,-97.2009,0.0,35.2,1111122 
TCOON,ioos:station:TCOON:147:1,2014-01-07T03:30:00Z,28.0841,-97.2009,0.0,35.2,1111122 
TCOON,ioos:station:TCOON:147:1,2014-01-07T04:00:00Z,28.0841,-97.2009,0.0,35.2,1111122 
TCOON,ioos:station:TCOON:147:1,2014-01-07T04:30:00Z,28.0841,-97.2009,0.0,35.1,1111122 
TCOON,ioos:station:TCOON:147:1,2014-01-07T05:00:00Z,28.0841,-97.2009,0.0,35.0,1111122 
TCOON,ioos:station:TCOON:147:1,2014-01-07T05:30:00Z,28.0841,-97.2009,0.0,35.0,1111122 
TCOON,ioos:station:TCOON:147:1,2014-01-07T06:00:00Z,28.0841,-97.2009,0.0,35.0,1111122 
TCOON,ioos:station:TCOON:147:1,2014-01-07T07:00:00Z,28.0841,-97.2009,0.0,35.0,1111122 
TCOON,ioos:station:TCOON:147:1,2014-01-07T07:30:00Z,28.0841,-97.2009,0.0,35.0,1111122 
TCOON,ioos:station:TCOON:147:1,2014-01-07T08:00:00Z,28.0841,-97.2009,0.0,35.0,1111122 
TCOON,ioos:station:TCOON:147:1,2014-01-07T08:30:00Z,28.0841,-97.2009,0.0,34.9,1111122 
TCOON,ioos:station:TCOON:147:1,2014-01-07T09:30:00Z,28.0841,-97.2009,0.0,34.8,1111122 
TCOON,ioos:station:TCOON:147:1,2014-01-07T10:00:00Z,28.0841,-97.2009,0.0,34.9,1111122 